Погода в Смирном

Россия / Тюменская область     55°49′01″N   68°59′06″E
темп.,
°C
ветер,
м/с
пор.,
м/с
влажн.,
%
обл.,
%
осадки,
мм/ч
давл.,
гПа
погр.,
м
24 января, пн
пн2423:00−22юз2210046 0.0 10409
02:00−23зюз1110034 0.0 10409
05:00−23юз2210049 0.0 104016
08:00−23юз2210065 0.0 104022
11:00−17юз359495 0.0 104092
14:00−14ююз3589100 0.0 1039142
17:00−16ююз2294100 0.0 103836
20:00−16ююз3790100 0.0 1037129
25 января, вт
вт2523:00−15ююз4988100 0.0 1035186
02:00−13юз41089100 0.1 1033284
05:00−12юз4109481 0.4 1031280
08:00−15юз4897100 0.0 1030148
11:00−11зюз4995100 0.1 1028253
14:00−8юз51295100 1.0 1026433
17:00−8зюз61395100 2.5 1024631
20:00−8з41094100 0.6 1024451
26 января, ср
ср2623:00−8з379695 0.8 1024200
02:00−10зсз239897 0.1 102549
05:00−16ссз1110097 0.1 10269
08:00−18вюв00100100 0.0 10279
11:00−10юз1297100 0.1 102773
14:00−7зюз1293100 0.1 1028197
17:00−13зюз2297100 0.1 103031
20:00−20юз2210082 0.0 103118
27 января, чт
чт2723:00−21юз2210081 0.0 103130
02:00−22ююз3510081 0.0 103143
05:00−20ю3595100 0.0 103162
08:00−20ю369875 0.0 103077
11:00−16ююз410856 0.0 1030190
14:00−13ю4108321 0.0 1029256
17:00−14ю498999 0.0 1028173
20:00−12ююз41093100 0.0 1028193
28 января, пт
пт2823:00−12ююз379598 0.0 1028130
02:00−10ююз3795100 0.0 1027157
05:00−10ююз3693100 0.2 1027117
08:00−13ю3593100 0.0 102779
11:00−11ю3690100 0.0 1027156
14:00−9ююв3688100 0.0 1025188
17:00−12ююв3691100 0.0 102577
20:00−14ююв3788100 0.0 1025100